TimeEDT,TemperatureF,Dew PointF,Humidity,Sea Level PressureIn,VisibilityMPH,Wind Direction,Wind SpeedMPH,Gust SpeedMPH,PrecipitationIn,Events,Conditions,WindDirDegrees,DateUTC
12:53 AM,55.0,26.1,33,29.81,10.0,South,20.7,27.6,N/A,,Scattered Clouds,170,2013-04-07 04:53:00
1:53 AM,53.1,28.9,40,29.79,10.0,South,16.1,-,0.00,,Mostly Cloudy,170,2013-04-07 05:53:00
2:53 AM,55.0,33.1,43,29.75,10.0,South,15.0,-,N/A,,Clear,180,2013-04-07 06:53:00
3:53 AM,57.0,35.1,44,29.72,10.0,SSW,20.7,-,N/A,,Partly Cloudy,200,2013-04-07 07:53:00
4:53 AM,57.9,36.0,44,29.72,10.0,SSW,19.6,27.6,N/A,,Mostly Cloudy,210,2013-04-07 08:53:00
5:53 AM,59.0,37.0,44,29.72,10.0,SSW,21.9,32.2,0.00,,Overcast,210,2013-04-07 09:53:00
6:53 AM,57.9,37.9,47,29.73,10.0,SSW,24.2,33.4,N/A,,Clear,210,2013-04-07 10:53:00
7:53 AM,57.0,39.9,53,29.76,10.0,SW,19.6,27.6,N/A,,Clear,220,2013-04-07 11:53:00
8:53 AM,60.1,42.1,51,29.78,10.0,SW,18.4,27.6,N/A,,Clear,230,2013-04-07 12:53:00
9:53 AM,62.1,43.0,50,29.80,10.0,West,25.3,35.7,N/A,,Clear,260,2013-04-07 13:53:00
10:53 AM,63.0,44.1,50,29.81,10.0,WSW,23.0,31.1,N/A,,Clear,250,2013-04-07 14:53:00
11:53 AM,64.0,43.0,46,29.83,10.0,WSW,25.3,33.4,N/A,,Clear,250,2013-04-07 15:53:00
12:53 PM,64.9,44.1,47,29.84,10.0,West,21.9,31.1,N/A,,Clear,270,2013-04-07 16:53:00
1:53 PM,66.0,42.1,42,29.86,10.0,West,21.9,31.1,N/A,,Clear,260,2013-04-07 17:53:00
2:53 PM,66.9,39.9,37,29.87,10.0,WSW,18.4,29.9,N/A,,Clear,250,2013-04-07 18:53:00
3:53 PM,68.0,39.9,36,29.89,10.0,West,18.4,26.5,N/A,,Clear,280,2013-04-07 19:53:00
4:53 PM,66.9,37.9,34,29.90,10.0,West,18.4,-,N/A,,Clear,280,2013-04-07 20:53:00
5:53 PM,66.0,37.9,36,29.92,10.0,West,11.5,-,N/A,,Clear,270,2013-04-07 21:53:00
6:53 PM,64.0,37.9,38,29.93,10.0,West,9.2,-,N/A,,Clear,280,2013-04-07 22:53:00
7:53 PM,61.0,39.0,44,29.93,10.0,NW,4.6,-,N/A,,Clear,320,2013-04-07 23:53:00
8:53 PM,55.9,37.0,49,29.96,10.0,North,5.8,-,N/A,,Clear,350,2013-04-08 00:53:00
9:53 PM,53.1,36.0,52,29.97,10.0,NE,4.6,-,N/A,,Clear,50,2013-04-08 01:53:00
10:53 PM,53.1,36.0,52,29.98,10.0,NE,6.9,-,N/A,,Clear,40,2013-04-08 02:53:00
11:53 PM,51.1,35.1,54,29.99,10.0,NE,6.9,-,N/A,,Clear,50,2013-04-08 03:53:00